Weather History for Manitowoc, WI

Change the Weather History Date:

Monday, January 20, 2014

  Actual Average Record
Temperature  
Mean Temperature 10 °F -  
Max Temperature 17 °F 28 °F 43 °F (1968)
Min Temperature 3 °F 11 °F -25 °F (1985)
Degree Days  
Heating Degree Days 55    
Moisture  
Dew Point 4 °F    
Average Humidity 70    
Maximum Humidity 85    
Minimum Humidity 56    
Precipitation  
Precipitation 0.00 in - - ()
Sea Level Pressure  
Sea Level Pressure 29.99 in    
Wind  
Wind Speed 11 mph (North)    
Max Wind Speed 18 mph    
Max Gust Speed 25 mph    
Visibility 9 miles    
Events Snow    
Averages and records for this station are not official NWS values.
T = Trace of Precipitation, MM = Missing Value Source: NWS Daily Summary

Daily Weather History Graph

Daily Weather History Graph

Search for Another Location

Airport:

Trip Planner

Search our weather history database for the weather conditions in past years. The results will help you decide how hot, cold, wet, or windy it might be!

Date:

Astronomy

Jan. 20, 2014 Rise Set
Actual Time 7:19 AM CST 4:44 PM CST
Civil Twilight 6:47 AM CST 5:16 PM CST
Nautical Twilight 6:12 AM CST 5:51 PM CST
Astronomical Twilight 5:37 AM CST 6:26 PM CST
Moon 9:30 PM CST (1/20) 9:08 AM CST (1/20)
Length of Visible Light 10h 28m
Length of Day
9h 25m
Waning Gibbous, 82% of the Moon is Illuminated
Jan 20
Waning Gibbous
Jan 23
Last Quarter
Jan 30
New
Feb 6
First Quarter
Feb 14
Full

Hourly Weather History & Observations

Time (CST) Temp. Windchill Dew Point Humidity Pressure Visibility Wind Dir Wind Speed Gust Speed Precip Events Conditions
12:56 AM 17.1 °F 5.0 °F 12.9 °F 84% 29.71 in 10.0 mi North 10.4 mph - 0.00 in   Overcast
1:12 AM 17.6 °F 2.2 °F 12.2 °F 79% 29.65 in 10.0 mi North 17.3 mph - N/A   Overcast
1:56 AM 16.0 °F 1.1 °F 10.9 °F 81% 29.77 in 10.0 mi North 15.0 mph - N/A   Overcast
2:56 AM 15.1 °F -0.1 °F 8.1 °F 74% 29.82 in 10.0 mi North 15.0 mph 18.4 mph N/A   Overcast
3:56 AM 14.0 °F 2.0 °F 7.0 °F 74% 29.83 in 10.0 mi North 9.2 mph - N/A   Overcast
4:11 AM 14.0 °F 2.0 °F 6.8 °F 73% 29.77 in 10.0 mi North 9.2 mph - N/A   Overcast
4:56 AM 14.0 °F 2.9 °F 5.0 °F 67% 29.86 in 10.0 mi North 8.1 mph - 0.00 in   Overcast
5:56 AM 12.9 °F 1.6 °F 5.0 °F 71% 29.87 in 9.0 mi North 8.1 mph - 0.00 in Snow Light Snow
6:11 AM 12.2 °F 0.7 °F 5.0 °F 73% 29.79 in 9.0 mi North 8.1 mph - 0.00 in Snow Light Snow
6:56 AM 12.9 °F 3.8 °F 6.1 °F 74% 29.90 in 9.0 mi NNW 5.8 mph - 0.00 in Snow Light Snow
7:56 AM 12.9 °F 0.7 °F 6.1 °F 74% 29.93 in 9.0 mi North 9.2 mph - 0.00 in Snow Light Snow
8:56 AM 12.9 °F 1.6 °F 7.0 °F 77% 29.96 in 4.0 mi NNW 8.1 mph - 0.00 in Snow Light Snow
9:32 AM 12.2 °F 2.9 °F 8.6 °F 85% 29.91 in 1.8 mi NNW 5.8 mph - 0.00 in Snow Light Snow
9:45 AM 12.2 °F 1.7 °F 8.6 °F 85% 29.92 in 2.5 mi NNW 6.9 mph - 0.00 in Snow Light Snow
9:56 AM 12.9 °F 1.6 °F 9.0 °F 84% 30.00 in 4.0 mi NNW 8.1 mph - 0.00 in Snow Light Snow
10:56 AM 14.0 °F -0.2 °F 8.1 °F 77% 30.02 in 9.0 mi North 12.7 mph - 0.00 in Snow Light Snow
11:56 AM 14.0 °F 0.5 °F 7.0 °F 74% 30.03 in 10.0 mi North 11.5 mph - 0.00 in   Overcast
12:56 PM 14.0 °F -0.2 °F 6.1 °F 71% 30.04 in 10.0 mi North 12.7 mph - N/A   Overcast
1:56 PM 14.0 °F -0.2 °F 3.9 °F 64% 30.05 in 10.0 mi North 12.7 mph - N/A   Overcast
2:56 PM 14.0 °F -0.2 °F 3.0 °F 62% 30.07 in 10.0 mi North 12.7 mph - N/A   Clear
3:56 PM 14.0 °F -0.2 °F 1.9 °F 59% 30.11 in 10.0 mi North 12.7 mph - N/A   Mostly Cloudy
4:56 PM 12.0 °F -0.4 °F -0.9 °F 56% 30.14 in 10.0 mi North 9.2 mph - N/A   Partly Cloudy
5:56 PM 12.0 °F -2.0 °F -0.9 °F 56% 30.17 in 10.0 mi North 11.5 mph - N/A   Overcast
6:56 PM 9.0 °F -8.5 °F -2.0 °F 61% 30.20 in 10.0 mi North 16.1 mph 23.0 mph N/A   Partly Cloudy
7:56 PM 7.0 °F -11.0 °F -4.0 °F 61% 30.23 in 10.0 mi North 16.1 mph 20.7 mph N/A   Mostly Cloudy
8:56 PM 6.1 °F -9.5 °F -6.0 °F 58% 30.26 in 10.0 mi North 11.5 mph - N/A   Mostly Cloudy
9:56 PM 5.0 °F -14.7 °F -6.0 °F 61% 30.26 in 10.0 mi North 18.4 mph 21.9 mph N/A   Mostly Cloudy
10:56 PM 3.0 °F -15.5 °F -6.0 °F 66% 30.28 in 10.0 mi North 15.0 mph 24.2 mph N/A   Partly Cloudy
11:56 PM 3.0 °F -14.8 °F -7.1 °F 63% 30.29 in 10.0 mi North 13.8 mph 25.3 mph N/A   Clear